TimeEDT,TemperatureF,Dew PointF,Humidity,Sea Level PressureIn,VisibilityMPH,Wind Direction,Wind SpeedMPH,Gust SpeedMPH,PrecipitationIn,Events,Conditions,WindDirDegrees,DateUTC
12:00 AM,39.2,19.4,45,29.94,10.0,West,20.7,31.1,N/A,,Clear,280,2013-03-20 04:00:00
12:20 AM,39.2,17.6,42,29.95,10.0,West,24.2,35.7,N/A,,Clear,270,2013-03-20 04:20:00
12:35 AM,39.2,17.6,42,29.95,10.0,WNW,18.4,27.6,N/A,,Clear,290,2013-03-20 04:35:00
1:00 AM,37.4,21.2,52,29.96,10.0,WNW,12.7,18.4,N/A,,Clear,300,2013-03-20 05:00:00
1:20 AM,35.6,21.2,56,29.97,10.0,West,11.5,16.1,N/A,,Clear,280,2013-03-20 05:20:00
1:40 AM,35.6,21.2,56,29.97,10.0,West,13.8,17.3,N/A,,Clear,280,2013-03-20 05:40:00
2:00 AM,35.6,19.4,52,29.98,10.0,West,13.8,18.4,N/A,,Clear,270,2013-03-20 06:00:00
2:20 AM,35.6,17.6,48,29.99,10.0,West,20.7,26.5,N/A,,Clear,280,2013-03-20 06:20:00
2:40 AM,35.6,17.6,48,29.99,10.0,WNW,8.1,20.7,N/A,,Clear,290,2013-03-20 06:40:00
3:00 AM,35.6,17.6,48,29.99,10.0,West,13.8,17.3,N/A,,Clear,280,2013-03-20 07:00:00
3:20 AM,33.8,17.6,52,29.99,10.0,WNW,12.7,-,N/A,,Clear,290,2013-03-20 07:20:00
3:40 AM,33.8,17.6,52,29.98,10.0,West,10.4,17.3,N/A,,Clear,280,2013-03-20 07:40:00
4:00 AM,33.8,17.6,52,29.98,10.0,West,8.1,-,N/A,,Clear,280,2013-03-20 08:00:00
4:20 AM,32.0,17.6,55,29.98,10.0,West,6.9,-,N/A,,Clear,270,2013-03-20 08:20:00
4:40 AM,32.0,19.4,60,29.98,10.0,West,8.1,-,N/A,,Clear,270,2013-03-20 08:40:00
5:00 AM,32.0,17.6,55,29.99,10.0,West,10.4,-,N/A,,Clear,270,2013-03-20 09:00:00
5:20 AM,32.0,17.6,55,29.99,10.0,West,10.4,18.4,N/A,,Clear,280,2013-03-20 09:20:00
5:40 AM,32.0,17.6,55,29.98,10.0,West,11.5,-,N/A,,Clear,280,2013-03-20 09:40:00
6:00 AM,32.0,17.6,55,29.98,10.0,West,10.4,-,N/A,,Clear,270,2013-03-20 10:00:00
6:20 AM,32.0,17.6,55,29.99,10.0,West,11.5,-,N/A,,Clear,280,2013-03-20 10:20:00
6:40 AM,32.0,17.6,55,29.99,10.0,West,6.9,-,N/A,,Clear,280,2013-03-20 10:40:00
6:45 AM,32.0,17.6,55,29.99,10.0,West,8.1,-,N/A,,Clear,270,2013-03-20 10:45:00
6:55 AM,33.8,15.8,48,29.99,10.0,West,6.9,-,N/A,,Clear,280,2013-03-20 10:55:00
7:50 AM,32.0,17.6,55,30.00,10.0,Calm,Calm,-,N/A,,Clear,0,2013-03-20 11:50:00
8:49 AM,37.4,19.4,48,30.01,10.0,WSW,4.6,-,N/A,,Clear,240,2013-03-20 12:49:00
9:45 AM,39.2,17.6,42,30.02,10.0,West,10.4,-,N/A,,Clear,280,2013-03-20 13:45:00
10:50 AM,42.8,17.6,36,30.00,10.0,West,11.5,20.7,N/A,,Clear,280,2013-03-20 14:50:00
11:45 AM,44.6,17.6,34,29.99,10.0,West,12.7,24.2,N/A,,Clear,270,2013-03-20 15:45:00
12:48 PM,46.4,17.6,32,29.96,10.0,West,12.7,25.3,N/A,,Scattered Clouds,280,2013-03-20 16:48:00
1:54 PM,46.4,17.6,32,29.92,10.0,WNW,12.7,20.7,N/A,,Scattered Clouds,290,2013-03-20 17:54:00
2:47 PM,48.2,19.4,32,29.88,10.0,West,15.0,24.2,N/A,,Mostly Cloudy,280,2013-03-20 18:47:00
3:55 PM,48.2,17.6,30,29.83,10.0,WSW,13.8,25.3,N/A,,Mostly Cloudy,250,2013-03-20 19:55:00
6:52 PM,48.2,17.6,30,29.79,10.0,West,12.7,17.3,N/A,,Mostly Cloudy,270,2013-03-20 22:52:00
7:45 PM,46.4,17.6,32,29.80,10.0,West,9.2,-,N/A,,Mostly Cloudy,280,2013-03-20 23:45:00
9:00 PM,42.8,21.2,42,29.82,10.0,NW,6.9,-,N/A,,Overcast,320,2013-03-21 01:00:00
9:20 PM,41.0,23.0,49,29.84,10.0,NNW,12.7,-,N/A,,Overcast,330,2013-03-21 01:20:00
9:40 PM,39.2,24.8,56,29.84,10.0,NNW,8.1,-,N/A,,Scattered Clouds,340,2013-03-21 01:40:00
10:05 PM,37.4,26.6,65,29.84,10.0,NNW,9.2,16.1,N/A,,Scattered Clouds,340,2013-03-21 02:05:00
10:25 PM,37.4,28.4,70,29.84,10.0,NNW,10.4,-,N/A,,Overcast,330,2013-03-21 02:25:00
10:45 PM,37.4,28.4,70,29.84,10.0,NNW,5.8,-,N/A,,Mostly Cloudy,330,2013-03-21 02:45:00
11:05 PM,35.6,28.4,75,29.85,10.0,NNW,4.6,-,N/A,,Scattered Clouds,330,2013-03-21 03:05:00
11:25 PM,35.6,28.4,75,29.85,10.0,NE,4.6,-,N/A,,Overcast,40,2013-03-21 03:25:00
11:45 PM,35.6,28.4,75,29.85,10.0,North,6.9,-,N/A,,Scattered Clouds,350,2013-03-21 03:45:00